• en France
  • Liste des pays
  • À 7 jours
  • Température de l'eau
  • Carte satellitaire
  • Carte météo
  • Widgets météo
  • user-avatar
    Se connecter

    Météo par heure à Bogolyubovka

    Ce jour, 24 Septembre, Lundi

    Heure Température Précipitation Vent Pression Humidité
    00:00 +10°C° 2 mm 3 m/s 746 mmHg 90%
    01:00 +9°C° 0.2 mm 3 m/s 746 mmHg 90%
    02:00 +9°C° 0.2 mm 3 m/s 746 mmHg 91%
    03:00 +9°C° 0 mm 2 m/s 746 mmHg 94%
    04:00 +8°C° 0 mm 2 m/s 746 mmHg 94%
    05:00 +8°C° 0 mm 2 m/s 746 mmHg 95%
    06:00 +7°C° 0 mm 2 m/s 747 mmHg 96%
    07:00 +8°C° 0 mm 2 m/s 747 mmHg 91%
    08:00 +10°C° 0 mm 2 m/s 747 mmHg 86%
    09:00 +12°C° 0 mm 2 m/s 747 mmHg 79%
    10:00 +13°C° 0 mm 2 m/s 747 mmHg 72%
    11:00 +15°C° 0 mm 2 m/s 747 mmHg 65%
    12:00 +16°C° 0 mm 3 m/s 748 mmHg 57%
    13:00 +16°C° 0 mm 3 m/s 747 mmHg 55%
    14:00 +16°C° 0 mm 3 m/s 747 mmHg 53%
    15:00 +17°C° 0 mm 3 m/s 746 mmHg 51%
    16:00 +16°C° 0 mm 3 m/s 746 mmHg 56%
    17:00 +14°C° 0 mm 3 m/s 746 mmHg 60%
    18:00 +13°C° 0 mm 3 m/s 745 mmHg 64%
    19:00 +13°C° 0.1 mm 3 m/s 745 mmHg 64%
    20:00 +13°C° 0.1 mm 4 m/s 745 mmHg 64%
    21:00 +13°C° 0.1 mm 5 m/s 744 mmHg 64%
    22:00 +11°C° 0.5 mm 6 m/s 743 mmHg 67%
    23:00 +11°C° 0.5 mm 6 m/s 742 mmHg 69%

    Demain, 25 Septembre, Mardi

    Heure Température Précipitation Vent Pression Humidité
    00:00 +11°C° 0.5 mm 7 m/s 742 mmHg 72%
    01:00 +10°C° 0.8 mm 7 m/s 741 mmHg 74%
    02:00 +10°C° 0.8 mm 7 m/s 741 mmHg 76%
    03:00 +10°C° 0.8 mm 7 m/s 740 mmHg 78%
    04:00 +10°C° 0.3 mm 7 m/s 740 mmHg 80%
    05:00 +10°C° 0.3 mm 6 m/s 739 mmHg 82%
    06:00 +10°C° 0.3 mm 6 m/s 739 mmHg 84%
    07:00 +9°C° 0.5 mm 6 m/s 739 mmHg 84%
    08:00 +9°C° 0.5 mm 5 m/s 739 mmHg 85%
    09:00 +9°C° 0.5 mm 5 m/s 740 mmHg 85%
    10:00 +9°C° 0.1 mm 5 m/s 740 mmHg 81%
    11:00 +9°C° 0.1 mm 5 m/s 740 mmHg 77%
    12:00 +10°C° 0.1 mm 6 m/s 741 mmHg 72%
    13:00 +10°C° 0 mm 6 m/s 741 mmHg 70%
    14:00 +10°C° 0 mm 6 m/s 741 mmHg 69%
    15:00 +11°C° 0 mm 6 m/s 742 mmHg 67%
    16:00 +10°C° 0 mm 6 m/s 742 mmHg 69%
    17:00 +9°C° 0 mm 5 m/s 743 mmHg 71%
    18:00 +10°C° 0 mm 4 m/s 743 mmHg 74%
    19:00 +8°C° 0 mm 4 m/s 744 mmHg 76%
    20:00 +7°C° 0 mm 4 m/s 744 mmHg 78%
    21:00 +7°C° 0 mm 4 m/s 745 mmHg 80%
    22:00 +7°C° 0 mm 4 m/s 745 mmHg 80%
    23:00 +7°C° 0 mm 5 m/s 745 mmHg 80%

    Après-demain, 26 Septembre, Mercredi

    Heure Température Précipitation Vent Pression Humidité
    00:00 +7°C° 0 mm 5 m/s 746 mmHg 79%
    01:00 +7°C° 0 mm 5 m/s 746 mmHg 79%
    02:00 +7°C° 0 mm 5 m/s 747 mmHg 80%
    03:00 +7°C° 0 mm 5 m/s 747 mmHg 80%
    04:00 +6°C° 0.1 mm 5 m/s 748 mmHg 80%
    05:00 +6°C° 0.1 mm 5 m/s 748 mmHg 81%
    06:00 +6°C° 0.1 mm 5 m/s 749 mmHg 81%
    07:00 +6°C° 0.1 mm 5 m/s 750 mmHg 80%
    08:00 +6°C° 0.1 mm 5 m/s 750 mmHg 79%
    09:00 +6°C° 0.1 mm 5 m/s 751 mmHg 79%
    10:00 +6°C° 0.1 mm 5 m/s 751 mmHg 77%
    11:00 +6°C° 0.1 mm 5 m/s 752 mmHg 75%
    12:00 +7°C° 0.1 mm 5 m/s 753 mmHg 73%
    13:00 +7°C° 0.1 mm 4 m/s 753 mmHg 70%
    14:00 +7°C° 0.1 mm 4 m/s 753 mmHg 67%
    15:00 +8°C° 0.1 mm 4 m/s 753 mmHg 65%
    16:00 +7°C° 0 mm 4 m/s 754 mmHg 65%
    17:00 +8°C° 0 mm 3 m/s 754 mmHg 66%
    18:00 +7°C° 0 mm 2 m/s 754 mmHg 67%
    19:00 +5°C° 0 mm 3 m/s 754 mmHg 68%
    20:00 +4°C° 0 mm 3 m/s 754 mmHg 68%
    21:00 +4°C° 0 mm 3 m/s 754 mmHg 69%
    22:00 +4°C° 0 mm 3 m/s 754 mmHg 69%
    23:00 +3°C° 0 mm 3 m/s 753 mmHg 70%

    27 Septembre, Jeudi

    Heure Température Précipitation Vent Pression Humidité
    00:00 +3°C° 0 mm 4 m/s 753 mmHg 71%
    01:00 +3°C° 0 mm 4 m/s 752 mmHg 70%
    02:00 +2°C° 0 mm 5 m/s 752 mmHg 69%
    03:00 +2°C° 0 mm 5 m/s 751 mmHg 68%
    04:00 +3°C° 0 mm 6 m/s 751 mmHg 68%
    05:00 +3°C° 0 mm 6 m/s 750 mmHg 67%
    06:00 +4°C° 0 mm 7 m/s 749 mmHg 67%
    07:00 +4°C° 0.4 mm 7 m/s 749 mmHg 70%
    08:00 +4°C° 0.4 mm 8 m/s 748 mmHg 72%
    09:00 +4°C° 0.4 mm 8 m/s 747 mmHg 75%
    10:00 +4°C° 0.7 mm 8 m/s 747 mmHg 77%
    11:00 +4°C° 0.7 mm 8 m/s 746 mmHg 80%
    12:00 +3°C° 0.7 mm 9 m/s 746 mmHg 82%
    13:00 +5°C° 1 mm 8 m/s 745 mmHg 83%
    14:00 +5°C° 1 mm 8 m/s 745 mmHg 85%
    15:00 +5°C° 1 mm 8 m/s 745 mmHg 86%
    16:00 +5°C° 0.2 mm 7 m/s 745 mmHg 87%
    17:00 +6°C° 0.2 mm 7 m/s 745 mmHg 88%
    18:00 +7°C° 0.2 mm 6 m/s 744 mmHg 88%
    19:00 +7°C° 0.2 mm 6 m/s 744 mmHg 89%
    20:00 +7°C° 0.2 mm 6 m/s 744 mmHg 90%
    21:00 +7°C° 0.2 mm 5 m/s 744 mmHg 91%
    22:00 +7°C° 0.3 mm 5 m/s 744 mmHg 91%
    23:00 +7°C° 0.3 mm 5 m/s 744 mmHg 91%

    28 Septembre, Vendredi

    Heure Température Précipitation Vent Pression Humidité
    00:00 +7°C° 0.3 mm 4 m/s 744 mmHg 92%
    01:00 +7°C° 0 mm 4 m/s 745 mmHg 93%
    02:00 +7°C° 0 mm 3 m/s 745 mmHg 95%
    03:00 +7°C° 0 mm 3 m/s 745 mmHg 96%
    04:00 +5°C° 0 mm 3 m/s 745 mmHg 96%
    05:00 +6°C° 0 mm 2 m/s 745 mmHg 96%
    06:00 +6°C° 0 mm 2 m/s 745 mmHg 97%
    07:00 +7°C° 0 mm 3 m/s 745 mmHg 92%
    08:00 +8°C° 0 mm 3 m/s 745 mmHg 87%
    09:00 +8°C° 0 mm 4 m/s 744 mmHg 82%
    10:00 +10°C° 0 mm 4 m/s 744 mmHg 80%
    11:00 +10°C° 0 mm 5 m/s 744 mmHg 77%
    12:00 +12°C° 0 mm 5 m/s 743 mmHg 75%
    13:00 +13°C° 0.3 mm 6 m/s 742 mmHg 77%
    14:00 +12°C° 0.3 mm 7 m/s 742 mmHg 79%
    15:00 +12°C° 0.3 mm 9 m/s 741 mmHg 81%
    16:00 +12°C° 0.3 mm 8 m/s 741 mmHg 81%
    17:00 +12°C° 0.3 mm 8 m/s 741 mmHg 82%
    18:00 +12°C° 0.3 mm 8 m/s 742 mmHg 83%
    19:00 +11°C° 0.4 mm 7 m/s 742 mmHg 84%
    20:00 +9°C° 0.4 mm 5 m/s 743 mmHg 86%
    21:00 +8°C° 0.4 mm 4 m/s 744 mmHg 87%
    22:00 +8°C° 0.1 mm 4 m/s 744 mmHg 88%
    23:00 +8°C° 0.1 mm 3 m/s 745 mmHg 90%

    29 Septembre, Samedi

    Heure Température Précipitation Vent Pression Humidité
    00:00 +7°C° 0.1 mm 3 m/s 746 mmHg 91%
    01:00 +6°C° 0 mm 2 m/s 746 mmHg 92%
    02:00 +5°C° 0 mm 2 m/s 747 mmHg 93%
    03:00 +4°C° 0 mm 2 m/s 747 mmHg 94%
    04:00 +5°C° 0 mm 1 m/s 748 mmHg 94%
    05:00 +5°C° 0 mm 1 m/s 749 mmHg 94%
    06:00 +4°C° 0 mm 1 m/s 749 mmHg 93%
    07:00 +5°C° 0 mm 1 m/s 750 mmHg 88%
    08:00 +7°C° 0 mm 1 m/s 750 mmHg 82%
    09:00 +8°C° 0 mm 1 m/s 750 mmHg 76%
    10:00 +9°C° 0 mm 1 m/s 751 mmHg 70%
    11:00 +10°C° 0 mm 1 m/s 751 mmHg 64%
    12:00 +11°C° 0 mm 1 m/s 751 mmHg 57%
    13:00 +12°C° 0 mm 1 m/s 751 mmHg 55%
    14:00 +12°C° 0 mm 1 m/s 750 mmHg 52%
    15:00 +12°C° 0 mm 1 m/s 750 mmHg 49%
    16:00 +11°C° 0 mm 1 m/s 750 mmHg 53%
    17:00 +11°C° 0 mm 1 m/s 750 mmHg 57%
    18:00 +10°C° 0 mm 1 m/s 750 mmHg 61%
    19:00 +8°C° 0 mm 2 m/s 750 mmHg 64%
    20:00 +8°C° 0 mm 2 m/s 750 mmHg 66%
    21:00 +7°C° 0 mm 2 m/s 751 mmHg 69%
    22:00 +7°C° 0.2 mm 2 m/s 751 mmHg 71%
    23:00 +7°C° 0.2 mm 2 m/s 751 mmHg 74%
    Voir plus